STARLINK-35088, 65344

Orbit data source: Space-Track

STARLINK-35088, 65344 is a payload satellite owned by SpaceX/Seattle (US) in LEO that was launched on Wed, 27 Aug 2025 UTC via an FALCON 9 launch vehicle from the Air Force Eastern Test Range (AFETR). Payload-class satellites include a variety of spacecraft equipped with specific instruments for various scientific and technological missions. These include communications satellites like Starlink; space stations such as the ISS; scientific satellites like the Hubble; Earth observation satellites from companies like Planet Labs, Umbra, and HawkEye 360; GPS; miniature CubeSats for education and research; and military/defense satellites.

Loading next visibility...
Identifier
65344, 2025-189X
Orbit
LEO
Country
Flag of USUS
Related business
Manufacturer
SpaceX/Seattle
Mission
Operational Commercial Communications
Bus & Motor
STARLINK V2MO, Unknown motor
Mass
575 kg wet, ~530 kg dry
Launch date (UTC)
2025-08-27 (10 months ago)
Launch vehicle
FALCON 9
Launch site
Air Force Eastern Test Range (AFETR)
Object type
Payload
Rocket body
Debris
Shape & HBR
Box + 2 Pan, 17.7 m
Radar Cross Section
36.964 m², Large (>1 m²)

Expand to show TLE details & history
Last TLE update: 21 hours ago

TLE from 21 hours ago
0 STARLINK-35088
1 65344U 25189X   26170.97677324  .00014226  00000-0  49130-3 0  9993
2 65344  53.1601  91.8942 0001216 111.5493 248.5638 15.30213694 46771
Epoch: 2026-06-19T23:26Z
TLE epoch observation values (Epoch: 2026-06-19T23:26:33.207Z)
Latitude
-0°
Longitude
-167.94218°
Altitude
476.379 km
Speed
7.629 km/s
True Right ascension
06h 07m 34s
True Declination
0° 00' 00"
Sunlit
Object was in daylight at epoch
Visualization orbit readout
Latitude
Unknown
Longitude
Unknown
Altitude
Unknown
Speed
Unknown
Apparent Right ascension
Unknown
Apparent Declination
Unknown
Sunlit
N/A
Visualization observer readout
Local Sidereal Time
07:17:18
Azimuth
Unknown
Elevation
Unknown
Doppler factor
Unknown
Orbital elements
Apogee altitude
476.264 km
Perigee altitude
474.597 km
Semi-major axis
6,853.568 km
Eccentricity
0.00012
Inclination
53.1601°
RAAN
91.8942°
Arg. of periapsis
111.5493°
True anomaly
248.55083°
Mean anomaly
248.5638°
Eccentric anomaly
248.55732°
Mean motion
3.82532 °/min
Orbital period
94.11 mins
BSTAR
0.0004913
Loading maneuver chart data...
Computing Atmospheric mass density...
Loading historical data...
Loading historical data...
Loading historical data...
Loading historical data...
Loading historical data...
Loading historical data...
Loading historical data...

Documentation

Showing up to 5 results
|